Location: Plock
(52.5500°N, 19.7000°E)
Time: 02:53:52
(UTC+01:00)

ISS - Visible Passes

Search period start: 11 December 2018 00:00
Search period end: 21 December 2018 00:00
Orbit: 401 x 408 km, 51.6° (Epoch: 10 December)

Date Brightness Start Highest point End Pass type
(mag) Time Alt. Az. Time Alt. Az. Time Alt. Az.
11 Dec -2.2 16:38:50 10° W 16:41:52 35° SSW 16:44:52 10° SE visible
12 Dec -0.8 17:23:49 10° WSW 17:25:42 15° SW 17:27:35 10° S visible
13 Dec -1.1 16:31:09 10° W 16:33:43 21° SSW 16:36:18 10° SSE visible
15 Dec -0.4 16:23:59 10° WSW 16:25:26 12° SW 16:26:53 10° SSW visible
